Weather History for KGUP - September, 2013

Change the Weather History Date:

Tuesday, September 17, 2013

  Actual Average Record
Temperature  
Mean Temperature 66 °F -  
Max Temperature 81 °F 75 °F 89 °F (2000)
Min Temperature 51 °F 41 °F 35 °F (1993)
Growing Degree Days 16 (Base 50)    
Moisture  
Dew Point 48 °F    
Average Humidity 57    
Maximum Humidity 89    
Minimum Humidity 28    
Precipitation  
Precipitation 0.00 in - - ()
Sea Level Pressure  
Sea Level Pressure 29.74 in    
Wind  
Wind Speed 5 mph (South)    
Max Wind Speed 12 mph    
Max Gust Speed 22 mph    
Visibility 10 miles    
Events      
Averages and records for this station are not official NWS values.
T = Trace of Precipitation, MM = Missing Value Source: NWS Daily Summary

Daily Weather History Graph

Daily Weather History Graph

Search for Another Location

Airport or City:

Trip Planner

Search our weather history database for the weather conditions in past years. The results will help you decide how hot, cold, wet, or windy it might be!

Date:

Astronomy

Sep. 17, 2013 Rise Set
Actual Time 6:59 AM MDT 7:18 PM MDT
Civil Twilight 6:34 AM MDT 7:44 PM MDT
Nautical Twilight 6:04 AM MDT 8:14 PM MDT
Astronomical Twilight 5:33 AM MDT 8:44 PM MDT
Moon 6:06 PM MDT (9/17) 5:00 AM MDT (9/17)
Length of Visible Light 13h 10m
Length of Day
12h 19m
Waxing Gibbous, 96% of the Moon is Illuminated
Sep 17
Waxing Gibbous
Sep 19
Full
Sep 26
Last Quarter
Oct 4
New
Oct 11
First Quarter

Hourly Weather History & Observations

Time (MDT) Temp. Dew Point Humidity Pressure Visibility Wind Dir Wind Speed Gust Speed Precip Events Conditions
12:53 AM 57.9 °F 50.0 °F 75% 29.82 in 10.0 mi SE 5.8 mph - N/A   Scattered Clouds
1:53 AM 55.9 °F 48.9 °F 77% 29.81 in 10.0 mi ENE 3.5 mph - N/A   Partly Cloudy
2:53 AM 57.0 °F 48.9 °F 74% 29.79 in 10.0 mi Calm Calm - N/A   Overcast
3:53 AM 55.0 °F 50.0 °F 83% 29.81 in 10.0 mi Calm Calm - N/A   Mostly Cloudy
4:53 AM 55.9 °F 50.0 °F 80% 29.79 in 10.0 mi SE 3.5 mph - N/A   Clear
5:53 AM 54.0 °F 48.9 °F 83% 29.81 in 10.0 mi NNE 4.6 mph - N/A   Clear
6:53 AM 51.1 °F 48.0 °F 89% 29.86 in 10.0 mi Calm Calm - N/A   Clear
7:53 AM 54.0 °F 50.0 °F 86% 29.87 in 10.0 mi ENE 4.6 mph - N/A   Clear
8:53 AM 62.1 °F 52.0 °F 70% 29.83 in 10.0 mi Calm Calm - N/A   Clear
9:53 AM 68.0 °F 53.1 °F 59% 29.81 in 10.0 mi South 8.1 mph - N/A   Clear
10:53 AM 71.1 °F 53.1 °F 53% 29.80 in 10.0 mi South 5.8 mph - N/A   Clear
11:53 AM 75.0 °F 50.0 °F 41% 29.75 in 10.0 mi SSE 10.4 mph - N/A   Partly Cloudy
12:53 PM 75.0 °F 48.9 °F 40% 29.73 in 10.0 mi SSW 5.8 mph - N/A   Scattered Clouds
1:53 PM 77.0 °F 46.9 °F 34% 29.70 in 10.0 mi SSW 11.5 mph - N/A   Scattered Clouds
2:53 PM 77.0 °F 48.0 °F 36% 29.67 in 10.0 mi South 9.2 mph - N/A   Mostly Cloudy
3:53 PM 78.1 °F 45.0 °F 31% 29.64 in 10.0 mi SW 8.1 mph - N/A   Partly Cloudy
4:53 PM 79.0 °F 46.0 °F 31% 29.61 in 10.0 mi South 9.2 mph - N/A   Scattered Clouds
5:53 PM 80.1 °F 44.1 °F 28% 29.61 in 10.0 mi SW 8.1 mph 21.9 mph N/A   Scattered Clouds
6:53 PM 75.9 °F 41.0 °F 29% 29.65 in 10.0 mi SSW 8.1 mph - N/A   Clear
7:53 PM 68.0 °F 45.0 °F 43% 29.69 in 10.0 mi SSW 6.9 mph - N/A   Clear
8:53 PM 66.0 °F 45.0 °F 47% 29.67 in 10.0 mi WSW 3.5 mph - N/A   Clear
9:53 PM 64.9 °F 46.0 °F 50% 29.64 in 10.0 mi South 8.1 mph - N/A   Clear
10:53 PM 62.1 °F 46.9 °F 58% 29.65 in 10.0 mi Calm Calm - N/A   Clear
11:53 PM 61.0 °F 48.0 °F 62% 29.65 in 10.0 mi SE 4.6 mph - N/A   Clear